Flag for U.S.A. Weather past 2 weeks in Columbia, South Carolina, U.S.A.

Now
71 °F

Passing clouds.


Feels Like: 68 °F
Forecast: 71 / 89 °F
Wind: 3 mph from Southwest

Location: Columbia Owens Downtown Airport

Current Time: Jul 3, 2015 at 4:53:08 AM

Latest Report: Jul 3, 2015 at 4:00 AM


Visibility: 10 mi

Pressure: 29.95 "Hg

Humidity: 90%

Dew point: 68 °F

Location of ColumbiaLocation

Historic Weather in Columbia — Graph

°F

Columbia temperature yesterday

Maximum temperature yesterday: 93 °F (at 2:53 PM)
Minimum temperature yesterday: 71 °F (at 6:53 PM)
Average temperature yesterday: 77 °F

Past Weeks' High & Low Weather Summary

 TemperatureHumidityPressure
High100 °F (Jun 26, 4:53 PM)91% (Jun 19, 6:53 AM)30.10 "Hg (Jun 19, 6:53 AM)
Low66 °F (Jun 29, 6:53 AM)27% (Jun 29, 3:53 PM)29.77 "Hg (Jun 27, 5:53 PM)
Average83 °F64%29.99 "Hg
* Reported Jun 18 4:53 AM — Jul 3 4:00 AM, Columbia, Weather by CustomWeather, © 2015

Note: Actual official high and low records may vary slightly from our data, if they occured in-between our weather recording intervals... More about our weather records

Advertising

Columbia weather history for previous 24 hours

 ConditionsComfort  
Time TempWeatherWind HumidityBarometerVisibility
4:00 AM
Fri, Jul 3
71 °FPassing clouds.3 mph90%29.95 "Hg10 mi
2:53 AM71 °FClear.5 mph90%29.94 "Hg10 mi
1:53 AM72 °FClear.7 mph84%29.96 "Hg10 mi
12:53 AM71 °FPassing clouds.5 mph90%29.97 "Hg10 mi
11:53 PM
Thu, Jul 2
71 °FClear.3 mph90%29.99 "Hg10 mi
10:53 PM71 °FClear.3 mph90%29.99 "Hg10 mi
9:53 PM71 °FClear.No wind90%29.96 "Hg10 mi
8:53 PM71 °FSunny.6 mph90%29.94 "Hg10 mi
7:53 PM71 °FLight rain. Sunny.6 mph90%29.96 "Hg10 mi
6:53 PM71 °FLight rain. Passing clouds.9 mph90%29.94 "Hg10 mi
5:53 PM72 °FLight rain. Scattered clouds.No wind87%29.96 "Hg7 mi
4:53 PM75 °FHeavy rain. Broken clouds.25 mph85%29.95 "Hg0 mi
3:53 PM91 °FPartly sunny.10 mph44%29.90 "Hg10 mi
2:53 PM93 °FPassing clouds.12 mph40%29.92 "Hg10 mi
1:53 PM90 °FSunny.10 mph45%29.96 "Hg10 mi
12:53 PM87 °FSunny.12 mph50%29.98 "Hg10 mi
11:53 AM85 °FPassing clouds.12 mph55%30.00 "Hg10 mi
10:53 AM81 °FSunny.6 mph65%30.01 "Hg10 mi
9:53 AM78 °FSunny.7 mph69%30.00 "Hg10 mi
8:53 AM75 °FSunny.6 mph76%30.01 "Hg8 mi
7:53 AM73 °FLight rain. Scattered clouds.7 mph81%30.01 "Hg7 mi
6:53 AM73 °FClear.5 mph79%29.99 "Hg7 mi
5:53 AM73 °FClear.5 mph79%29.97 "Hg9 mi
4:53 AM74 °FClear.5 mph76%29.97 "Hg10 mi
Weather by CustomWeather, © 2015

See weather overviewHow to use our weather pages